Regional Weather Roundup
Issued by NWS Northern Indiana

Home | Current Version | Previous Version | Graphics & Text | Print | Product List | Glossary On
Versions: 1 2 3 4 5 6 7 8 9 10 11 12 13 14 15 16 17 18 19 20 21 22 23 24 25 26 27 28 29 30 31 32 33 34 35 36 37 38 39 40 41 42 43 44 45 46 47 48 49 50
000
ASUS43 KIWX 160610
RWRIWX

KIWX WEATHER ROUNDUP
NATIONAL WEATHER SERVICE NORTHERN INDIANA
100 AM EST MON JAN 16 2017

NOTE: "FAIR" INDICATES FEW OR NO CLOUDS BELOW 12,000 FEET WITH NO
SIGNIFICANT WEATHER AND/OR OBSTRUCTIONS TO VISIBILITY.

* THESE STATIONS ARE NOT UNDER NWS QUALITY CONTROL. THEY ALSO MAY NOT
  REPORT WEATHER SUCH AS PRECIPITATION OR FOG.

INZ001>027-160700-
NORTHERN INDIANA

CITY           SKY/WX    TMP DP  RH WIND       PRES   REMARKS
GARY*          PTCLDY    33  27  79 SE3       30.32S
VALPARAISO     PTCLDY    31  27  85 E7        30.31S WCI  24
6HR MIN TEMP:  30; 6HR MAX TEMP:  33;

LAPORTE*       CLOUDY    31  27  85 SE3       30.32R
6HR MIN TEMP:  30; 6HR MAX TEMP:  32;

KNOX*          CLOUDY    30  14  51 E3        30.31S
SOUTH BEND     PTCLDY    29  24  82 CALM      30.31F
6HR MIN TEMP:  28; 6HR MAX TEMP:  31;

GOSHEN         PTCLDY    30  22  72 SE6       30.30F WCI  24
6HR MIN TEMP:  30; 6HR MAX TEMP:  31;

ROCHESTER*     CLOUDY    34  28  80 E6        30.31F WCI  29
WARSAW*        CLOUDY    30  19  64 E3        30.31S
FORT WAYNE     CLOUDY    30  26  85 E5        30.32F WCI  25
6HR MIN TEMP:  28; 6HR MAX TEMP:  31;

PERU/GRISSOM   CLOUDY    32  30  94 E7        30.27F WCI  26
6HR MIN TEMP:  31; 6HR MAX TEMP:  32;

MARION*        CLOUDY    32  28  86 CALM      30.31S FOG

$$
INZ028>050-160700-
CENTRAL INDIANA

CITY           SKY/WX    TMP DP  RH WIND       PRES   REMARKS
LAFAYETTE      CLOUDY    33  30  88 E5        30.29F WCI  29
6HR MIN TEMP:  32; 6HR MAX TEMP:  33;

KOKOMO*        CLOUDY    32  30  92 E7        30.29F FOG     WCI  26
6HR MIN TEMP:  31; 6HR MAX TEMP:  32;

MUNCIE*        CLOUDY    33  30  88 SE6       30.29F FOG     WCI  28
6HR MIN TEMP:  33; 6HR MAX TEMP:  34;

INDIANAPOLIS   CLOUDY    35  32  88 E6        30.28F FOG     WCI  30
6HR MIN TEMP:  34; 6HR MAX TEMP:  35; 6HR PCP: TRACE;


$$
MIZ043>046-050>051-056>058-064>065-071>073-077>080-160700-
SOUTHWEST LOWER MICHIGAN

CITY           SKY/WX    TMP DP  RH WIND       PRES   REMARKS
BATTLE CREEK   CLOUDY    23  20  88 CALM      30.31F
6HR MIN TEMP:  22; 6HR MAX TEMP:  28;

BENTON HARBOR  PTCLDY    25  22  88 CALM      30.31F FOG
6HR MIN TEMP:  24; 6HR MAX TEMP:  30;

COLDWATER*     PTCLDY    25  21  83 MISG      30.31S
6HR MIN TEMP:  25; 6HR MAX TEMP:  30;

HILLSDALE*     CLOUDY    23  21  93 CALM      30.30S
HOLLAND        PTCLDY    26  20  77 CALM      30.32S
6HR MIN TEMP:  25; 6HR MAX TEMP:  30;

GRAND RAPIDS   CLOUDY    22  18  85 CALM      30.31F FOG
6HR MIN TEMP:  22; 6HR MAX TEMP:  29;

KALAMAZOO      CLOUDY    25  19  78 CALM      30.32S HAZE
6HR MIN TEMP:  24; 6HR MAX TEMP:  31;

STURGIS*       CLOUDY    27  22  80 CALM      30.31S
6HR MIN TEMP:  27; 6HR MAX TEMP:  30;

THREE RIVERS*  FAIR      24  21  89 CALM      30.32F FOG
6HR MIN TEMP:  24; 6HR MAX TEMP:  29;


$$
OHZ001>008-015>018-024>025-160700-
NORTHWEST OHIO

CITY           SKY/WX    TMP DP  RH WIND       PRES   REMARKS
DEFIANCE       PTCLDY    28  23  81 CALM      30.33F HAZE
6HR MIN TEMP:  27; 6HR MAX TEMP:  30;

FINDLAY        PTCLDY    30  24  78 E3        30.32F
6HR MIN TEMP:  27; 6HR MAX TEMP:  30;

TOLEDO EXPRESS CLOUDY    21  21 100 NE5       30.34F FOG     WCI  15
6HR MIN TEMP:  21; 6HR MAX TEMP:  26;

TOLEDO METCALF PTCLDY    24  21  88 CALM      30.36S FOG
6HR MIN TEMP:  24; 6HR MAX TEMP:  29;

LIMA           PTCLDY    30  28  92 E5        30.32F FOG     WCI  25
6HR MIN TEMP:  28; 6HR MAX TEMP:  30;


$$
AND FOR LAKE MICHIGAN COASTAL AND OPEN LAKE BUOY OBSERVATIONS

STATION/POSITION TEMP    WIND        PRES    VSBY  WAVE
                 AIR SEA DIR/SP/G                  HT/PER
                 (F)     (DEG/KT/KT) (MB)    (MI)  (FT/S)
CALUMET HARBOR    32     130/  3/  5 1025.7F
MICHIGAN CITY     31     130/  5/  5   N/A
BURNS HARBOR      32     140/  4/  9 1026.8F
SAINT JOSEPH      29      CALM  /  1 1026.1

$$
&&




USA.gov is the U.S. government's official web portal to all federal, state and local government web resources and services.